Miscellaneous Local Product
Issued by NWS North Platte, NE

Home | Current Version | Previous Version | Text Only | Print | Product List | Glossary On
Versions: 1 2 3 4 5 6 7 8 9 10 11 12 13 14 15 16 17 18 19 20 21 22 23 24 25 26 27 28 29 30 31 32 33 34 35 36 37 38 39 40 41 42 43 44 45 46 47 48 49 50
000
AXUS43 KLBF 211910
MISLBF


WESTERN AND NORTH CENTRAL NEBRASKA HOURLY WEATHER ROUNDUP
NATIONAL WEATHER SERVICE NORTH PLATTE NE
200 PM CDT MON MAY 21 2018

NOTE: "FAIR" INDICATES FEW OR NO CLOUDS BELOW 12,000 FEET WITH NO
SIGNIFICANT WEATHER AND/OR OBSTRUCTIONS TO VISIBILITY.

NOTE: STATIONS NOT REPORTING VARIABLES SUCH AS SKY/WEATHER OR
PRESSURE ARE PROVIDED BY RAWS AND APRS NETWORKS AND ARE NOT UNDER
NATIONAL WEATHER SERVICE QUALITY CONTROL.

...OBSERVATIONS IN AND NEAR THE EASTERN PANHANDLE OF NEBRASKA...

CITY           SKY/WX    TMP DP  RH WIND       PRES   REMARKS
PINE RIDGE     SUNNY     71  53  52 VRB6      29.96F
GORDON         FAIR      71  55  56 S10       29.97F
CHADRON        SUNNY     73  55  53 S8        29.94F
ALLIANCE       MOSUNNY   65  54  67 SE9G17    29.99F
SIDNEY         MOSUNNY   67  53  61 SE9       30.02S
CRESCENT LAKE    N/A     63  51  66 S6          N/A
$$

...OBSERVATIONS IN NORTHERN NEBRASKA AND FAR SOUTHERN SOUTH DAKOTA...

CITY           SKY/WX    TMP DP  RH WIND       PRES   REMARKS
WINNER         FAIR      72  43  35 VRB3      29.98F
VALENTINE      SUNNY     73  48  41 S9        29.98F
AINSWORTH      SUNNY     70  50  49 S9        29.99F
O`NEILL        SUNNY     71  50  47 SW9       30.01F
THEDFORD       PTSUNNY   70  52  52 S12G20    30.01S
BROKEN BOW     MOSUNNY   69  54  58 S13G24    30.01F
ORD            SUNNY     69  54  58 VRB5G17   30.01F
ALBION         SUNNY     70  53  55 W8        30.03S
VALENTINE NWR    N/A     70  49  46 S9G16       N/A
HALSEY           N/A     70  50  48 S8          N/A
BUTTE            N/A     69  52  54 CALM        N/A
CHAMBERS         N/A     71  47  43 SW3         N/A
EWING            N/A     70  53  54 SW6         N/A
$$

...OBSERVATIONS IN SOUTHWEST NEBRASKA AND FAR NORTHEAST COLORADO...

CITY           SKY/WX    TMP DP  RH WIND       PRES   REMARKS
WRAY           FAIR      75  54  46 S14G20    29.99F
HOLYOKE        FAIR      73  57  56 S10G16    30.01S
IMPERIAL       PTSUNNY   72  55  55 S13G23    30.00F
OGALLALA       CLOUDY    68  56  65 S15       30.00F
NORTH PLATTE   MOSUNNY   73  59  61 S14G24    30.00F
MCCOOK         SUNNY     75  58  55 S17G28    29.99F
LEXINGTON      CLOUDY    68  58  70 S12       30.03F
STAPLETON        N/A     72  56  57 CALM        N/A
GOTHENBURG       N/A     67  52  57 S12         N/A
CALLAWAY         N/A     69  59  69 S18         N/A
$$

...OBSERVATIONS IN CENTRAL LINCOLN COUNTY AREA...

CITY           SKY/WX    TMP DP  RH WIND       PRES   REMARKS
N.P. AIRPORT   MOSUNNY   73  59  61 S14G24    30.00F
N.P. DOWNTOWN    N/A     74  59  58 S5          N/A
N.P. SOUTHEAST   N/A     72  57  58 S10G18      N/A
$$

...OBSERVATIONS ACROSS THE ROCKIES AND WESTERN HIGH PLAINS...

CITY           SKY/WX    TMP DP  RH WIND       PRES   REMARKS
RAPID CITY     SUNNY     69  53  56 SE15G23   29.94F
SCOTTSBLUFF    SUNNY     68  56  65 E7        29.98F
CHEYENNE       SUNNY     71  42  35 SE6       30.04F
DENVER         MOSUNNY   75  42  30 VRB5      30.01F
BERTHOUD PASS  PTSUNNY   41  32  70 NW10G24   30.42F
COPPER MTN     PTSUNNY   52  19  28 S6G17     30.40S
MONARCH PASS   CLOUDY    46  25  42 MISG      30.50F
ASPEN          PTSUNNY   66  22  18 SW8       30.13S
STEAMBOAT      FAIR      69  30  23 N5        30.05F
LARAMIE        MOSUNNY   67  31  26 W5        30.08F
CASPER         MOSUNNY   72  40  31 VRB3G16   29.98F
$$

...OBSERVATIONS ACROSS THE NORTHERN PLAINS...

CITY           SKY/WX    TMP DP  RH WIND       PRES   REMARKS
BISMARCK       CLOUDY    71  48  43 SE12G18   29.97F
FARGO          CLOUDY    72  44  36 SE14G20   29.99F
PIERRE         SUNNY     70  45  40 SE5       29.95F
SIOUX FALLS    CLOUDY    61  57  87 CALM      30.02S
$$

...OBSERVATIONS ACROSS THE CENTRAL AND SOUTHERN PLAINS...

CITY           SKY/WX    TMP DP  RH WIND       PRES   REMARKS
OMAHA          PTSUNNY   67  56  67 W5        30.03F
GRAND ISLAND   MOSUNNY   70  55  59 S9G18     30.05F
KANSAS CITY    CLOUDY    64  58  80 W8        30.07F
WICHITA        MOSUNNY   75  58  55 SW6       30.07F
DODGE CITY     PTSUNNY   76  56  49 S18G26    30.06F
OKLAHOMA CITY  MOSUNNY   79  62  56 NE6       30.06F
DALLAS         PTSUNNY   86  65  49 CALM      30.00F
AMARILLO       CLOUDY    71  56  58 S15       30.13F
$$




USA.gov is the U.S. government's official web portal to all federal, state and local government web resources and services.